Regional Weather Roundup
Issued by NWS

Home | Current Version | Previous Version | Text Only | Print | Product List | Glossary Off
Versions: 1 2 3 4 5 6 7 8 9 10 11 12 13 14 15 16 17 18 19 20 21 22 23 24 25 26 27 28 29 30 31 32 33 34 35 36 37 38 39 40 41 42 43 44 45 46 47 48 49 50

000
ASUS45 KABQ 250001
RWRNM
NEW MEXICO REGIONAL WEATHER ROUNDUP
NATIONAL WEATHER SERVICE ALBUQUERQUE NM
600 PM MDT FRI MAR 24 2017

NOTE: "FAIR" MEANS FEW OR NO CLOUDS BELOW 12,000 FEET AGL WITH NO
       SIGNIFICANT WEATHER OR OBSTRUCTIONS TO VISION.

      THIS PRODUCT IS RELEASED AS TWO VERSIONS.  ONE VERSION NEAR
      THE TOP OF THE HOUR CONTAINING PRELIMINARY DATA FROM ALBUQUERQUE
      AND OTHER STATIONS.  A FINAL VERSION WITH ADDITIONAL DATA IS
      ISSUED ABOUT 10 MINUTES AFTER THE HOUR.

NMZ501-503-504-510>518-250100-
NORTHWEST PLATEAU/NORTHCENTRAL MOUNTAINS

CITY           SKY/WX    TMP DP  RH WIND       PRES   REMARKS
FARMINGTON     FAIR      63  20  19 NW22G31   30.06S
6HR MIN TEMP:  55; 6HR MAX TEMP:  64;

LOS ALAMOS     FAIR      56  24  29 W13G22    30.12R
SANTA FE       FAIR      61  26  26 N10G22    30.06R
6HR MIN TEMP:  51; 6HR MAX TEMP:  62;

TAOS             N/A     50  28  43 N8        30.12R
ANGEL FIRE     FAIR      40  30  67 W9        30.14R WCI  34

$$
NMZ402-403-502-505>509-250100-
WESTCENTRAL MOUNTAINS/SOUTHWEST MOUNTAINS

CITY           SKY/WX    TMP DP  RH WIND       PRES   REMARKS
GALLUP         FAIR      59  23  25 W15       30.16S
6HR MIN TEMP:  49; 6HR MAX TEMP:  61;

GRANTS         FAIR      61  21  21 NW17G25   30.13F
SILVER CITY    FAIR      64  28  25 W22G29    30.12S

$$
NMZ407-409-411-412-250100-
SOUTHERN DESERTS

CITY           SKY/WX    TMP DP  RH WIND       PRES   REMARKS
DEMING         FAIR      69  25  19 W22G31    30.07S
6HR MIN TEMP:  61; 6HR MAX TEMP:  71;

LAS CRUCES     FAIR      70  24  18 SW21      30.07S
HOLLOMAN AFB   FAIR      72  20  14 CALM      30.05R
ALAMOGORDO     FAIR      72  19  14 CALM      30.03S
T OR C         FAIR      73   9   8 NW17G28   30.03R
6HR MIN TEMP:  63; 6HR MAX TEMP:  75;


$$
NMZ519>523-250100-
CENTRAL VALLEYS/CENTRAL HIGHLANDS

CITY           SKY/WX    TMP DP  RH WIND       PRES   REMARKS
ALBUQUERQUE    FAIR      67  19  16 NW16G25   30.05S
6HR MIN TEMP:  57; 6HR MAX TEMP:  68;

DOUBLE EAGLE   MOSUNNY   64  23  20 NW15G26   30.08R
MORIARTY ARPT  FAIR      64  26  23 NW17G24   30.08R
6HR MIN TEMP:  55; 6HR MAX TEMP:  66;

CLINES CORNERS FAIR      56  26  31 NW12      30.10R
6HR MIN TEMP:  48; 6HR MAX TEMP:  59;

BELEN          FAIR      69  17  13 NW17G25   30.04R
6HR MIN TEMP:  61; 6HR MAX TEMP:  71;

SOCORRO        FAIR      70  20  15 NW21G29   30.03R
6HR MIN TEMP:  62; 6HR MAX TEMP:  71;


$$
NMZ524>526-539-540-250100-
SOUTHCENTRAL MOUNTAINS

CITY           SKY/WX    TMP DP  RH WIND       PRES   REMARKS
RUIDOSO        NOT AVBL

$$
NMZ527>531-250100-
NORTHEAST HIGHLANDS/NORTHEAST PLAINS

CITY           SKY/WX    TMP DP  RH WIND       PRES   REMARKS
LAS VEGAS      FAIR      51  27  39 NE18      30.07R
6HR MIN TEMP:  50; 6HR MAX TEMP:  60;

RATON          NOT AVBL
CLAYTON        CLOUDY    44  35  70 N25G44    30.05R
6HR MIN TEMP:  43; 6HR MAX TEMP:  47;


$$
NMZ532>537-250100-
EASTCENTRAL PLAINS

CITY           SKY/WX    TMP DP  RH WIND       PRES   REMARKS
TUCUMCARI      FAIR      58  30  34 N35G48    30.00F
6HR MIN TEMP:  56; 6HR MAX TEMP:  62;

CANNON AFB     FAIR      58  29  33 NW31G40   30.01R
6HR MIN TEMP:  57; 6HR MAX TEMP:  61; 6HR PCP:  0.09;

CLOVIS AIRPORT FAIR      55  28  35 N26G38    30.03R

$$
NMZ028-029-538-250100-
SOUTHEAST PLAINS

CITY           SKY/WX    TMP DP  RH WIND       PRES   REMARKS
ROSWELL        FAIR      70  27  20 NE15        N/A
6HR MIN TEMP:  70; 6HR MAX TEMP:  76;

ARTESIA        FAIR      72  32  23 NE14      29.96R
CARLSBAD       FAIR      77  21  12 W16       29.93R
6HR MIN TEMP:  69; 6HR MAX TEMP:  79;

HOBBS          SUNNY     68  27  21 NW22G31   29.98R


$$



USA.gov is the U.S. government's official web portal to all federal, state and local government web resources and services.